www.pogodaiklimat.ru

Погода и климат >> Архив погоды >> Эфиопия >> Комбольча


ПОГОДА в Комбольча

  • Прогноз погоды в Комбольча
  • Монитор погоды в Комбольча

АРХИВ ПОГОДЫ в Комбольча

Время (UTC), дата Ветер
(напр.,м/с)
 
Видим.   Явления Облачность Т
(С)
Тd
(С)
f
(%)
Тe
(С)
Тes
(С)
Комфортность P
(гПа)
Po
(гПа)
Тmin
(С)
Tmax
(С)
R
(мм)
R24
(мм)
S
(см)
15 12.08 С 1 25 км слаб. дождь {гроза} 9/5 800 м
[Sc As op]
+17.6 +16.5 93 +19 +19 1016.3 815.4
18 12.08 штиль 0 30 км 6/4 800 м
[Sc Ac trans]
+17.2 +15.4 89 +17 +17 1017.0 815.9 +26.8
03 13.08 штиль 0 30 км 9/6 750 м
[Cu Sc As trans]
+15.8 +14.7 93 +16 +16 1017.6 816.4
06 13.08 С 1 30 км 9/6 800 м
[Sc As trans]
+19.6 +15.7 78 +23 +25 комфорт 1018.5 817.1 +14.4 4
09 13.08 В 1 30 км 8/3 800 м
[Cu hum Ac trans]
+24.0 +16.6 63 +27 +38 жарко 1017.7 816.5
12 13.08 штиль 0 25 км гроза, ливневой дождь 9/9 800 м
[Cb cap Ci fib]
+22.0 +16.0 69 +26 +28 душно 1016.6 815.6
15 13.08 С 1 25 км слаб. дождь {гроза} 9/5 800 м
[Cu Sc As op]
+17.6 +15.4 87 +19 +19 1017.3 816.2
18 13.08 штиль 0 30 км в посл. час дождь {гроза} 5/3 800 м
[Sc Ac trans]
+16.4 +15.7 96 +16 +16 1017.2 816.1 +26.0
03 14.08 штиль 0 25 км слаб. дождь 10/6 750 м
[Cu Sc As op]
+15.6 +14.7 94 +15 +15 1018.1 816.8
06 14.08 штиль 0 20 км {дождь} 9/6 540 м
[Cu Sc As trans]
+16.6 +15.7 94 +16 +19 1020.0 818.3 +14.8 6
09 14.08 ЮВ 2 30 км 6/5 800 м
[Cu Sc Ac trans]
+21.8 +16.2 70 +26 +35 душно 1018.2 816.9
12 14.08 штиль 0 30 км 5/4 800 м
[Cu Sc Ac trans]
+25.8 +14.1 48 +28 +38 жарко 1016.8 815.8
15 14.08 ЮВ 2 30 км 6/6 800 м
[Cu Sc Ac trans]
+24.2 +16.3 61 +28 +28 душно 1015.8 815.0
18 14.08 штиль 0 30 км 6/5 800 м
[Sc Ac trans]
+19.0 +16.0 83 +20 +20 1017.7 816.5 +26.7
06 15.08 штиль 0 30 км 3/3 800 м
[Cu hum Ac trans]
+22.2 +16.0 68 +26 +35 душно 1019.3 817.8 +13.2
09 15.08 штиль 0 30 км 4/4 600 м
[Cu hum]
+26.0 +17.0 58 +30 +48 душно 1018.2 816.9
12 15.08 Ю 4 30 км 4/3 800 м
[Cu hum Ac trans]
+28.0 +16.3 49 +31 +37 душно 1016.1 815.2
15 15.08 В 6 30 км 3/3 800 м
[Cu hum]
+25.8 +15.6 53 +29 +29 душно 1015.2 814.5
03 16.08 штиль 0 30 км 3/3 800 м
[Sc]
+14.8 +13.7 93 +14 +14 1017.1 816.0
06 16.08 штиль 0 30 км 6/5 800 м
[Cu Sc Ac trans]
+19.8 +15.7 77 +22 +28 комфорт 1016.7 817.3 +14.6
09 16.08 З 6 25 км слаб. дождь {гроза} 8/6 800 м
[Cu Sc Ac trans]
+17.6 +15.2 86 +17 +19 1018.7 817.3
12 16.08 Ю 2 30 км {гроза, дождь} 6/5 800 м
[Cu Sc Ac trans]
+23.2 +15.5 62 +27 +33 душно 1016.6 815.6
15 16.08 В 2 30 км 1/1 800 м
[Cu hum]
+24.4 +16.8 63 +28 +28 душно 1015.2 814.5
18 16.08 штиль 0 30 км гроза без осадков 6/6 800 м
[Cb cap]
+20.2 +16.8 81 +23 +23 комфорт 1015.7 814.9 +26.5
03 17.08 штиль 0 30 км 5/5 800 м
[Cu hum]
+15.0 +14.7 98 +15 +15 1016.1 815.2
06 17.08 С 2 30 км 6/6 800 м
[Cu Sc]
+19.4 +15.5 78 +22 +26 комфорт 1017.3 816.2 +13.8 6
09 17.08 штиль 0 30 км 5/5 800 м
[Cu hum Ac trans]
+26.2 +15.4 51 +29 +44 жарко 1016.3 815.4
12 17.08 СЗ 2 30 км 6/1 800 м
[Cu hum Ac trans]
+26.4 +15.3 50 +29 +37 жарко 1014.8 814.2
15 17.08 СВ 1 30 км 9/6 800 м
[Cu Sc Ac trans]
+24.8 +16.3 59 +28 +28 жарко 1013.7 813.3
09 19.08 В 4 30 км 8/6 800 м
[Cu Sc Ac trans]
+24.0 +16.6 63 +27 +32 жарко 1018.1 816.8

 

Местоположение метеостанции Комбольча (Эфиопия): широта 11.12 долгота 39.73 высота над уровнем моря 1903 м.

В архиве по умолчанию представлена погода в Комбольча за последнюю неделю. Архивные данные за месяц целиком и за предыдущие месяцы, начиная с января 2011 года, Вы можете получить, выбрав интересующий диапазон дат из раскрывающегося списка и нажав кнопку "Ввод!".


*Определитесь, кто Вы:
робот инопланетянин человек

Внимание! Время в таблицах - всемирное. Для получения местного времени необходимо прибавить поправку, которая равна 3 ч.

Смотрите также архив погоды в соседних городах и на ближайших метеорологических станциях:

Погода в Дэбрэ-Маркосе (Эфиопия) (242 км)
Погода в Метехаре (Эфиопия) (251 км)
Погода в Аддис-Абебе (Эфиопия) (256 км)
Погода в Бахар Дар (Эфиопия) (257 км)
Погода в Макале (Эфиопия) (266 км)
Погода Harar Meda аэропорту (Эфиопия) (280 км)
Погода в Дыре-Дауа (Эфиопия) (287 км)
Погода в Гондэре (Эфиопия) (298 км)
Погода в Джибути () (376 км)
Погода в Нэкэмте (Эфиопия) (425 км)

Пояснения к столбцам:

Ветер - указаны скорость ветра в м/с - средняя за 10 мин, порывы в срок и между сроками (в фигурных скобках) и направление, откуда дует ветер: С - северный, СВ - северо-восточный, В - восточный, ЮВ - юго-восточный, Ю - южный, ЮЗ - юго-западный, З - западный, СЗ - северо-западный.
Видимость - горизонтальная дальность видимости в метрах или километрах. При видимости от 1 до 10 км при отсутствии осадков обычно наблюдается дымка, при ухудшении видимости до 1 км и менее - туман. В сухую погоду видимость может ухудшаться дымом, пылью или мглою.
Явления - указаны атмосферные явления, наблюдавшиеся в срок или в последний час перед сроком; фигурными скобками обозначены явления, наблюдавшиеся между сроками (за 1-3 часа до срока); квадратными скобками обозначены град или гололедные отложения с указанием их диаметра в мм.
Облачность - указаны через наклонную черту общая и нижняя облачность в баллах и высота нижней границы облаков в метрах; квадратными скобками обозначены формы облаков: Ci - перистые, Cs - перисто-слоистые, Cc - перисто-кучевые, Ac - высококучевые, As - высокослоистые, Sc - слоисто-кучевые, Ns - слоисто-дождевые, Cu - кучевые, Cb - кучево-дождевые. Подробнее классификацию облаков см. в Атласе облаков (PDF).
T - Температура воздуха - температура, измеренная на высоте 2 м над землей.
Td - Температура точки росы - температура, при понижении до которой содержащийся в воздухе водяной пар достигнет насыщения.
f - Относительная влажность воздуха - влажноcть воздуха, измеренная на высоте 2 м над землей.
Te - Эффективная температура - температура, которую ощущает одетый по сезону человек в тени. Характеристика душности погоды. При расчете учитывается влияние влажности воздуха и скорости ветра на теплоощущения человека.
Tes - Эффективная температура на солнце - температура, которую ощущает человек, с поправкой на солнечный нагрев. Характеристика знойности погоды. Зависит от высоты солнца над горизонтом, облачности и скорости ветра. Ночью, в пасмурную погоду, а также при ветре 12 м/с и более поправка равна нулю.
P - Атмосферное давление - приведенное к уровню моря атмосферное давление.
Po - Атмосферное давление - измеренное на уровне метеостанции атмосферное давление.
Tmin - Минимальная температура - минимум температуры воздуха на высоте 2 м над землей.
Tmax - Максимальная температура - максимум температуры воздуха на высоте 2 м над землей.
R - Количество осадков - Количество выпавших осадков за период времени, мм. При наведении курсора мыши на число - период времени, за который выпало указанное количество осадков.
R24 - Количество осадков - Количество выпавших осадков за 24 часа, мм.
S - Снежный покров - Высота снежного покрова, см. При наведении курсора мыши на число - состояние снежного покрова и степень покрытия местности в баллах.